Regional Weather Roundup
Issued by NWS

Home | Current Version | Previous Version | Text Only | Print | Product List | Glossary On
Versions: 1 2 3 4 5 6 7 8 9 10 11 12 13 14 15 16 17 18 19 20 21 22 23 24 25 26 27 28 29 30 31 32 33 34 35 36 37 38 39 40 41 42 43 44 45 46 47 48 49 50
000
ASUS43 KLMK 230610
RWRKY
KENTUCKY REGIONAL WEATHER ROUNDUP
NATIONAL WEATHER SERVICE LOUISVILLE KY
200 AM EDT MON OCT 23 2017

NOTE "FAIR" INDICATES FEW OR NO CLOUDS BELOW 12,000 FEET
WITH NO SIGNIFICANT WEATHER AND/OR OBSTRUCTIONS TO VISIBILITY.

KYZ001>023-026-027-061>063-070>075-230700-
WESTERN AND SOUTH CENTRAL KENTUCKY

CITY           SKY/WX    TMP DP  RH WIND       PRES   REMARKS
PADUCAH        CLOUDY    56  53  90 NW6       29.90S
HENDERSON      RAIN      65  64  97 SE12      29.87S FOG
OWENSBORO      RAIN      67  64  90 SE10      29.88F
HOPKINSVILLE   HVY RAIN  66  66 100 W10       29.87F FOG
BOWLING GREEN  LGT RAIN  71  63  75 SE12      29.91F
GLASGOW        CLOUDY    70  58  66 SE8       29.94F
$$

KYZ024-025-028>034-038-045-046-053-230700-
NORTH CENTRAL KENTUCKY

CITY           SKY/WX    TMP DP  RH WIND       PRES   REMARKS
LOUISVILLE/SDF CLOUDY    69  57  65 SE9       29.94F
LOUISVILLE/LOU CLOUDY    69  57  65 SE10      29.94F
FORT KNOX      CLOUDY    70  58  64 SE12      29.92F
$$

KYZ035>037-039>044-047>052-055>060-089>105-230700-
NORTHEAST KENTUCKY

CITY           SKY/WX    TMP DP  RH WIND       PRES   REMARKS
LEXINGTON      MOCLDY    67  53  61 SE12      30.00F
COVINGTON      CLOUDY    66  52  60 SE10      29.98F
FRANKFORT      CLOUDY    67  52  58 SE9       29.97F
$$

KYZ054-064>069-076>088-106>120-230700-
SOUTHEAST KENTUCKY

CITY           SKY/WX    TMP DP  RH WIND       PRES   REMARKS
JACKSON        CLOUDY    68  52  56 SE6       30.06F
LONDON         CLOUDY    67  55  65 SE5       30.04F
SOMERSET       CLOUDY    64  54  68 S6        30.03F
MIDDLESBORO    MOCLDY    69  57  67 CALM      30.07F
MONTICELLO     CLOUDY    67  57  70 E8        30.02F
$$





USA.gov is the U.S. government's official web portal to all federal, state and local government web resources and services.